Location: Epalinges
(46.5518°N, 6.6683°E)
Time: 13:01:04
(UTC+00:00)

SeaSat 1 - Pass Details

Date: 20 October 2021
Orbit: 744 x 747 km, 108.0° (Epoch: 09 December)

Event Time Altitude Azimuth Distance (km) Brightness Sun altitude
Exits shadow 20:41:28 10° 343° (NNW) 2,266 5.4 -41.2°
Drops below altitude 10° 20:41:32 10° 343° (NNW) 2,290 5.4 -41.2°
Sets 20:43:50 0° 337° (NNW) 3,200 6.3 -41.5°
